Tracking 28126 objects as of 1-Oct-2023
HD Live streaming from Space Station
objects crossing your sky now

THORAD AGENA D DEB

Track THORAD AGENA D DEB now!
10-day predictions


NORAD ID: 4710
Int'l Code: 1970-025BY
Perigee: 1,055.7 km
Apogee: 1,064.0 km
Inclination: 100.1 °
Period: 106.2 minutes
Semi major axis: 7430 km
RCS: 0.052 m2 (small)
Launch date: April 8, 1970
Source: United States (US)
Launch site: AIR FORCE WESTERN TEST RANGE (AFWTR)

Note: This is SATELLITE DEBRIS
Your satellite tracking list
Your tracking list is empty




NASA's NSSDC Master Catalog

Two Line Element Set (TLE):
1  4710U 70025BY  23273.48641015  .00000274  00000-0  46317-3 0  9999
2  4710 100.1109 241.5060 0005568  93.2946  30.4723 13.55336313639708
Source of the keplerian elements: AFSPC